Погода в Колывани

Погода в Колывани : погода сейчас, прогноз погоды и архив. Всё, что Вы хотите узнать о погоде в Колывани!

Хотите узнать прогноз погоды в Колывани? Тогда Вам сюда: Погода в Колывани

Поиск расширенной информации на нашем сайте:

Другие новости

Новости СМИ2

Главная страница сайта

Новости сайта

02.10.2013

Напоминаем, что на нашем новом сайте вы можете получить высокодетализированные прогнозы погоды по пунктам России, СНГ и мира (включающие важные для авиации метеовеличины, такие как направление и скорость ветра, видимость, явления погоды, количество и форма облачности, нижняя и верхняя граница облачности), а также ознакомиться с разнообразными материалами по авиационной метеорологии и подборкой полезных ссылок на эту тему.

Сайт Метеоцентр.Азия посвящён разработке технологий оптимизации авиаметеорологического обслуживания, включая проектирование и перспективное создание нескольких автоматизированных авиаметеорологических систем:
- система выпуска высокодетальных прогностических карт явлений погоды для нижнего воздушного пространства по России и ближнему зарубежью;
- система верификации прогнозов TAF (выпускаемых синоптиками официальных АМСГ РФ и ближнего зарубежья) и AUTOTAF (выпускаемых сайтом Метеоцентр.Азия) - выявление ошибок, онлайн-сопоставление с фактической погодой METAR, автоматическое внесение коррективов в прогнозы при резком отклонении фактической погоды от прогноза, подсчёт оправдываемости прогнозов по элементам и в целом;
- система обработки, анализа и отображения авиаметеорологической информации для применения провайдерами метеорологической информации.


Погода в Колывани - сегодня

Время (UTC), дата Ветер
(°,м/с) 
Видим.   Явления Облачность Т
(°С)
Тd
(°С)
f(%) Тe
(°С)
Pmin
(гПа)
dP
(гПа)
Po
(мм)
O2
(г/м3)
Тmin Tmax R s Состояние
почвы
00 18.01.17 210 (ЮЗ) 4000 м  слаб. снег  10/0 средняя 
[As op]
-20.3 -22.7 81 -25  1039.1  -0.6  764  334  -21    0.0  39  очень
неравномерный
сухой снег
(сугробы, заносы) 
03 18.01.17 210 (ЮЗ) 20000 м  {снег}  10/0 верхняя 
[Ci]
-20.9 -23.4 80 -25  1038.5  -0.6  764  335           
06 18.01.17 210 (ЮЗ) 20000 м  {снег}  8/0 верхняя 
[Ci fib]
-19.3 -21.7 81 -24  1038.1  -0.3  763  333           
09 18.01.17 210 (ЮЗ) 20000 м    8/0 верхняя 
[Ci sp]
-18.7 -21.6 78 -23  1037.4  -0.6  763  332           
12 18.01.17 200 (Ю) 20000 м    10/0 верхняя 
[Ci fib]
-19.1 -21.6 81 -23  1037.2  -0.2  763  332    -18.6  0.0     
15 18.01.17 210 (ЮЗ) 20000 м    6/0 верхняя 
[Ci fib]
-19.5 -21.9 81 -24  1037  -0.3  763  333           
18 18.01.17 210 (ЮЗ) 20000 м    8/0 верхняя 
[Ci fib]
-20.2 -22.6 81 -23  1036.9  -0.1  762  333           
21 18.01.17 220 (ЮЗ) 20000 м    10/0 верхняя 
[Ci fib]
-20.7 -23 82 -25  1036.8  -0.2  762  334           
00 19.01.17 210 (ЮЗ) 20000 м    10/0 верхняя 
[Cs]
-21.4 -24 80 -22  1036.9  0.1  762  335  -21.5      39  очень
неравномерный
сухой снег
(сугробы, заносы) 
03 19.01.17 200 (Ю) 4000 м  дымка  10/0 средняя, верхняя 
[Ac trans|Ci sp]
-21.2 -23.7 80 -24  1036.8  -0.1  762  335           
06 19.01.17 200 (Ю) 20000 м    9/0 средняя, верхняя 
[Ac trans|Ci sp]
-19 -21.5 81 -22  1037.2  0.5  763  332           
09 19.01.17 250 (З) 20000 м    4/0 верхняя 
[Ci sp]
-18.8 -21.4 80 -19  1036.9  -0.2  763  332           
12 19.01.17 180 (Ю) 20000 м    8/0 средняя, верхняя 
[Ac trans|Ci fib]
-21.2 -23.7 80 -22  1037.2  0.1  763  335    -17.8       
15 19.01.17 150 (ЮВ) 20000 м    6/0 верхняя 
[Ci fib]
-20.3 -22.7 81 -21  1036.2  -1  762  333           
18 19.01.17 150 (ЮВ) 20000 м    ясно 
-20.8 -23.3 80 -21  1035.1  -1  761  334           
21 19.01.17 140 (ЮВ) 20000 м    ясно 
-22 -24.6 79 -22  1033.5  -1.7  760  335           
00 20.01.17 110 (В) 20000 м    ясно 
-21.6 -24.1 80 -22  1031.6  -1.8  758  334  -22.4      39  очень
неравномерный
сухой снег
(сугробы, заносы) 
03 20.01.17 160 (Ю) 20000 м    9/0 верхняя 
[Ci fib]
-17.9 -20.2 82 -20  1029.3  -2  757  328           
06 20.01.17 180 (Ю) 20000 м    10/0 средняя, верхняя 
[Ac trans|Ci fib]
-13.8 -17.1 76 -17  1027.1  -1.8  756  322           
09 20.01.17 190 (Ю) 20000 м    10/0 средняя, верхняя 
[Ac trans|Ci fib]
-12.8 -17 71 -17  1026.3  -0.7  755  321           
12 20.01.17 180 (Ю) 4000 м  слаб. снег  10/0 средняя 
[As op]
-11.8 -14.1 83 -16  1025.1  -1.2  754  319    -11.8  0.0     
15 20.01.17 190 (Ю) 4000 м  слаб. снег  10/0 средняя 
[As op]
-9.7 -11.6 86 -14  1023  -1.8  753  316           
18 20.01.17 190 (Ю) 4000 м  слаб. снег  10/0 средняя 
[As op]
-8.6 -10.6 85 -12  1021.1  -1.9  751  314           
21 20.01.17 190 (Ю) 20000 м  позёмок{снег}  6/6 1000 м 
[Sc]
-8.2 -10 87 -12  1019.9  -1.1  751  313           
00 21.01.17 200 (Ю) 4000 м  слаб. ливневой снег  10/10 300 м кучево-дожд. 
[Cb cap]
-8.1 -9.8 88 -12  1018.8  -1.1  750  312  -11.8    41  очень
неравномерный
сухой снег
(сугробы, заносы) 
Время (UTC), дата Ветер
(°,м/с) 
Видим.   Явления Облачность Т
(°С)
Тd
(°С)
f(%) Тe
(°С)
Pmin
(гПа)
dP
(гПа)
Po
(мм)
O2
(г/м3)
Тmin Tmax R s Состояние
почвы

Для получения пояснительной информации подведите курсор к названию столбца.

ПОГОДА в Колывани - архив

Всё, что Вы хотите узнать о погоде в Колывани - удобно и подробно!

Выберите нужную дату (начиная с 1 января 2015* года) и нажмите кнопку "Найти".
Будут отображены архивные сводки погоды по пункту Колывань, начиная с указанной даты.


Отображать данные в формате CSV (для использования в таблицах Excel)


Внимание! Наш архив погоды предназначен исключительно для личного некоммерческого использования в познавательных целях. Если Вам необходимы официальные справки о состоянии погоды (для производственных, юридических, коммерческих и т.п. целей), обращайтесь в органы Росгидромета.

*Примечание: данная дата относится к архиву по метеостанциям СССР (Россия, СНГ, Балтия).
Архив по метеостанциям Зарубежной Европы и Азии (кроме Китая) хранится 10 дней, по другим регионам земного шара (Китай, Африка, Америка, Австралия, Океания) - 1 день.

Колывань - район местоположения метеостанции


Название, широта, долгота, высота метеостанции:
Колывань 55.3°ш. 82.8°д. 137 м над ур. моря [Российская Федерация]

Дополнительная информация

В oтличие oт бoльшинства пoгoдных сайтoв мы публикуем пoдрoбную метеoинфoрмацию в детальнoм прoфессиoнальнoм фoрмате.

Характеристики температуры и влажнoсти вoздуха измеряются на высoте 2 м в тени вдали oт зданий и деревьев.
Скoрoсть ветра измеряется на высoте 10 м (на урoвне рoста челoвека скoрoсть ветра ниже в 1.5-2 раза). Если метеoстанция нахoдится в гoрoде или в лесу, тo скoрoсть ветра занижена на 2-4 м/с пo сравнению с oткрытым местoм. Скoрoсть ветра над акватoриями крупных рек и oзёр, а также на вершинах хoлмoв на 2-5 м/с выше, чем в oбычных услoвиях.
Атмoсфернoе давление в разных тoчках местнoсти мoжет значительнo oтличаться oт давления на метеoстанции, в зависимoсти oт услoвий рельефа (при пoдъёме на 10 м давление пoнижается примернo на 1 мм рт.ст.).